Belleville, IL

4:38 PM CDT on June 25, 2017 (GMT -0500)
Scott Air Force Base-Midamerica

Weather History for KBLV - October, 2012

Change the Weather History Date:

Sunday, October 14, 2012

  Actual Average Record
Temperature  
Mean Temperature 64 °F -  
Max Temperature 74 °F 72 °F 89 °F (1992)
Min Temperature 54 °F 45 °F 24 °F (1979)
Degree Days  
Heating Degree Days 1    
Growing Degree Days 14 (Base 50)    
Moisture  
Dew Point 60 °F    
Average Humidity 84    
Maximum Humidity 100    
Minimum Humidity 56    
Precipitation  
Precipitation 0.73 in - - ()
Sea Level Pressure  
Sea Level Pressure 29.77 in    
Wind  
Wind Speed 14 mph (SW)    
Max Wind Speed 33 mph    
Max Gust Speed 44 mph    
Visibility 9 miles    
Events Rain    
Averages and records for this station are not official NWS values.
T = Trace of Precipitation, MM = Missing Value Source: NWS Daily Summary

Daily Weather History Graph

Daily Weather History Graph

Search for Another Location

Airport or City:

Trip Planner

Search our weather history database for the weather conditions in past years. The results will help you decide how hot, cold, wet, or windy it might be!

Date:

Astronomy

Oct. 14, 2012 Rise Set
Actual Time 7:07 AM CDT 6:21 PM CDT
Civil Twilight 6:41 AM CDT 6:48 PM CDT
Nautical Twilight 6:10 AM CDT 7:19 PM CDT
Astronomical Twilight 5:39 AM CDT 7:49 PM CDT
Moon 6:07 AM CDT (10/14) 5:42 PM CDT (10/14)
Length of Visible Light 12h 07m
Length of Day
11h 13m
Waning Crescent, 1% of the Moon is Illuminated
Oct 14
Waning Crescent
Oct 15
New
Oct 21
First Quarter
Oct 29
Full
Nov 6
Last Quarter

Hourly Weather History & Observations

Time (CDT) Temp. Dew Point Humidity Pressure Visibility Wind Dir Wind Speed Gust Speed Precip Events Conditions
12:55 AM 71.6 °F 61.9 °F 71% 29.80 in 10.0 mi SSW 12.7 mph 24.2 mph N/A   Overcast
1:04 AM 71.6 °F 62.6 °F 73% 29.79 in 10.0 mi South 11.5 mph - N/A   Overcast
1:18 AM 69.8 °F 62.6 °F 78% 29.79 in 10.0 mi South 11.5 mph - N/A Rain Light Rain
1:31 AM 69.8 °F 62.6 °F 78% 29.79 in 10.0 mi South 9.2 mph - N/A   Mostly Cloudy
1:41 AM 68.0 °F 62.6 °F 83% 29.79 in 9.0 mi South 9.2 mph - N/A Rain Light Rain
1:55 AM 68.0 °F 63.5 °F 85% 29.79 in 8.0 mi South 9.2 mph - 0.01 in Rain Light Rain
2:16 AM 68.0 °F 64.4 °F 88% 29.81 in 7.0 mi SSW 19.6 mph 36.8 mph N/A Rain Light Rain
2:24 AM 68.0 °F 64.4 °F 88% 29.81 in 4.0 mi SW 18.4 mph 43.7 mph N/A Rain Light Rain
2:55 AM 65.3 °F 65.1 °F 99% 29.82 in 3.0 mi SW 11.5 mph - 0.32 in Rain Heavy Rain
3:06 AM 64.4 °F 64.4 °F 100% 29.82 in 4.0 mi SW 10.4 mph - N/A Rain Rain
3:33 AM 64.4 °F 64.4 °F 100% 29.79 in 7.0 mi SSW 12.7 mph 21.9 mph N/A Rain Rain
3:55 AM 63.7 °F 63.3 °F 99% 29.78 in 10.0 mi South 16.1 mph - 0.32 in   Overcast
3:56 AM 64.4 °F 62.6 °F 94% 29.78 in 10.0 mi South 15.0 mph - N/A Rain Light Rain
4:55 AM 62.8 °F 62.4 °F 99% 29.74 in 10.0 mi SSE 15.0 mph - 0.03 in Rain Light Rain
5:55 AM 63.3 °F 63.0 °F 99% 29.69 in 10.0 mi South 20.7 mph - 0.02 in Rain Light Rain
6:35 AM 64.4 °F 64.4 °F 100% 29.70 in 10.0 mi SSW 10.4 mph - N/A   Mostly Cloudy
6:55 AM 64.8 °F 64.4 °F 99% 29.70 in 10.0 mi South 15.0 mph 23.0 mph N/A   Mostly Cloudy
7:55 AM 65.1 °F 64.8 °F 99% 29.70 in 10.0 mi South 13.8 mph - N/A   Overcast
8:15 AM 64.4 °F 64.4 °F 100% 29.71 in 10.0 mi South 16.1 mph 25.3 mph N/A   Overcast
8:25 AM 64.4 °F 64.4 °F 100% 29.71 in 10.0 mi South 19.6 mph 23.0 mph N/A   Overcast
8:31 AM 64.4 °F 64.4 °F 100% 29.71 in 10.0 mi SSW 15.0 mph 24.2 mph N/A   Overcast
8:55 AM 65.8 °F 63.7 °F 93% 29.71 in 10.0 mi SSW 18.4 mph 26.5 mph N/A   Overcast
9:20 AM 66.2 °F 62.6 °F 88% 29.71 in 10.0 mi SSW 17.3 mph 29.9 mph N/A   Mostly Cloudy
9:55 AM 67.1 °F 62.4 °F 85% 29.70 in 10.0 mi South 19.6 mph 28.8 mph N/A   Scattered Clouds
10:55 AM 70.5 °F 61.5 °F 73% 29.70 in 10.0 mi SSW 26.5 mph 33.4 mph 0.02 in   Mostly Cloudy
11:55 AM 72.1 °F 59.5 °F 64% 29.70 in 10.0 mi SW 21.9 mph 29.9 mph N/A   Mostly Cloudy
12:55 PM 73.2 °F 57.6 °F 58% 29.69 in 10.0 mi SW 24.2 mph 32.2 mph N/A   Mostly Cloudy
1:55 PM 74.5 °F 58.1 °F 57% 29.67 in 10.0 mi WSW 15.0 mph 23.0 mph N/A   Mostly Cloudy
2:55 PM 73.2 °F 56.5 °F 56% 29.70 in 10.0 mi WSW 23.0 mph 35.7 mph N/A   Clear
3:44 PM 71.6 °F 55.4 °F 57% 29.74 in 5.0 mi WNW 33.4 mph 43.7 mph N/A   Haze
3:55 PM 67.5 °F 60.3 °F 78% 29.76 in 2.0 mi WNW 24.2 mph 43.7 mph 0.01 in Rain Light Rain
4:04 PM 62.6 °F 60.8 °F 94% 29.77 in 10.0 mi WNW 16.1 mph - N/A   Overcast
4:55 PM 64.9 °F 58.1 °F 78% 29.78 in 10.0 mi WNW 17.3 mph 25.3 mph 0.00 in   Overcast
5:10 PM 64.4 °F 57.2 °F 77% 29.79 in 10.0 mi West 13.8 mph 21.9 mph N/A   Mostly Cloudy
5:55 PM 64.9 °F 55.6 °F 72% 29.81 in 10.0 mi WNW 16.1 mph 26.5 mph N/A   Overcast
6:55 PM 62.4 °F 52.5 °F 70% 29.85 in 10.0 mi West 10.4 mph - N/A   Clear
7:55 PM 60.6 °F 52.9 °F 76% 29.87 in 10.0 mi West 5.8 mph - N/A   Mostly Cloudy
8:55 PM 59.0 °F 52.7 °F 80% 29.90 in 10.0 mi West 9.2 mph - N/A   Scattered Clouds
9:55 PM 57.2 °F 50.5 °F 78% 29.93 in 10.0 mi NW 8.1 mph - N/A   Clear
10:55 PM 54.9 °F 49.5 °F 82% 29.95 in 10.0 mi NW 4.6 mph - N/A   Clear
11:55 PM 54.0 °F 49.1 °F 84% 29.95 in 10.0 mi Calm Calm - N/A   Clear